Вернуться в каталог

ELEKTRO-L 5

АктивенПогодаGEO
NORAD 67756·PAYLOAD·🇷🇺 Russia

Запущен Feb 12, 2026 с Baikonur Cosmodrome

Loading…

TLE

СвежийSource: Space-Track

Эпоха: Sep 13, 2026, 19:24 UTC

1 67756U 26028A   26256.80886220 -.00000107  00000-0  00000-0 0  9993
2 67756   0.1831   8.8885 0002384 158.2688 192.8525  1.00270849  2137

Отслеживайте ELEKTRO-L 5 в реальном времени с AllMySat

Download on the App Store